This is the latest recevied weather packets stored in our database for station/object KN6DHD. If no packets are shown the sender has not sent any weather packets the latest 1 day(s).
| Time | Temp. | Humidity | Pressure | Rain* | Wind** | Luminosity | Snow |
|---|---|---|---|---|---|---|---|
| 1778047574 | 14.44° C | 86% | 1018.3 hPa | 0 mm | 0 m/s | 0 W/m² | - |
| 1778047262 | 15° C | 86% | 1018.2 hPa | 0 mm | 0.45 m/s, 96° | 0 W/m² | - |
| 1778046960 | 15° C | 86% | 1018.3 hPa | 0 mm | 0.45 m/s, 69° | 0 W/m² | - |
| 1778046651 | 15° C | 86% | 1018.2 hPa | 0 mm | 0 m/s | 0 W/m² | - |
| 1778046348 | 15° C | 86% | 1018 hPa | 0 mm | 0.45 m/s, 110° | 0 W/m² | - |
| 1778046044 | 15° C | 85% | 1017.9 hPa | 0 mm | 0.45 m/s, 112° | 0 W/m² | - |
| 1778045742 | 15° C | 85% | 1017.8 hPa | 0 mm | 0.89 m/s, 324° | 0 W/m² | - |
| 1778045440 | 15° C | 85% | 1018 hPa | 0 mm | 1.34 m/s, 173° | 0 W/m² | - |
| 1778045138 | 15° C | 86% | 1018.1 hPa | 0 mm | 0.45 m/s, 169° | 0 W/m² | - |
| 1778044836 | 15° C | 85% | 1017.9 hPa | 0 mm | 0.45 m/s, 157° | 0 W/m² | - |
| 1778044532 | 15° C | 85% | 1017.9 hPa | 0 mm | 0 m/s | 0 W/m² | - |
| 1778044229 | 15° C | 85% | 1018 hPa | 0 mm | 0 m/s | 0 W/m² | - |
| 1778043927 | 15° C | 84% | 1018.1 hPa | 0 mm | 0.45 m/s, 143° | 0 W/m² | - |
| 1778043625 | 15° C | 84% | 1017.9 hPa | 0 mm | 0 m/s | 0 W/m² | - |
| 1778043321 | 15.56° C | 84% | 1017.8 hPa | 0 mm | 0.45 m/s, 121° | 0 W/m² | - |
| 1778043017 | 15.56° C | 83% | 1017.9 hPa | 0 mm | 0 m/s | 0 W/m² | - |
| 1778042716 | 15.56° C | 83% | 1017.6 hPa | 0 mm | 0 m/s | 0 W/m² | - |
| 1778042412 | 15.56° C | 83% | 1017.7 hPa | 0 mm | 0.45 m/s, 113° | 0 W/m² | - |
| 1778042109 | 15.56° C | 82% | 1017.3 hPa | 0 mm | 0.45 m/s, 119° | 0 W/m² | - |
| 1778041808 | 16.11° C | 81% | 1017.2 hPa | 0 mm | 0.45 m/s, 160° | 0 W/m² | - |
| 1778041507 | 16.11° C | 81% | 1017.3 hPa | 0 mm | 0.45 m/s, 97° | 0 W/m² | - |
| 1778041204 | 16.11° C | 80% | 1017.4 hPa | 0 mm | 0.45 m/s, 155° | 0 W/m² | - |
| 1778040903 | 16.11° C | 80% | 1017.3 hPa | 0 mm | 0.89 m/s, 339° | 0 W/m² | - |
| 1778040599 | 16.67° C | 80% | 1017.2 hPa | 0 mm | 0 m/s | 0 W/m² | - |
| 1778040297 | 16.67° C | 80% | 1017.1 hPa | 0 mm | 0.45 m/s, 101° | 0 W/m² | - |
* Rain latest hour (hover to see other rain measurements)
** Current wind speed in m/s (hover to see current wind gust speed)